TimePST,TemperatureF,Dew PointF,Humidity,Sea Level PressureIn,VisibilityMPH,Wind Direction,Wind SpeedMPH,Gust SpeedMPH,PrecipitationIn,Events,Conditions,WindDirDegrees,DateUTC
12:56 AM,66.9,32.0,27,29.97,10.0,WNW,4.6,-,N/A,,Clear,290,2012-11-06 08:56:00
1:56 AM,68.0,33.1,27,29.97,10.0,NW,6.9,-,N/A,,Clear,310,2012-11-06 09:56:00
2:56 AM,68.0,34.0,28,29.97,10.0,WNW,6.9,-,N/A,,Clear,300,2012-11-06 10:56:00
3:56 AM,69.1,34.0,27,29.97,10.0,NW,6.9,-,N/A,,Clear,310,2012-11-06 11:56:00
4:56 AM,69.1,35.1,29,29.99,10.0,NNW,5.8,-,N/A,,Clear,330,2012-11-06 12:56:00
5:56 AM,68.0,35.1,30,30.00,10.0,NW,10.4,-,N/A,,Clear,320,2012-11-06 13:56:00
6:56 AM,71.1,35.1,27,30.03,10.0,WNW,6.9,-,N/A,,Clear,300,2012-11-06 14:56:00
7:56 AM,75.9,36.0,23,30.04,10.0,NNW,5.8,-,N/A,,Clear,340,2012-11-06 15:56:00
8:56 AM,78.1,36.0,22,30.03,10.0,North,8.1,-,N/A,,Clear,360,2012-11-06 16:56:00
9:56 AM,81.0,36.0,20,30.02,10.0,NNE,9.2,-,N/A,,Clear,20,2012-11-06 17:56:00
10:56 AM,84.0,37.0,19,30.00,10.0,North,5.8,-,N/A,,Clear,10,2012-11-06 18:56:00
11:56 AM,87.1,35.1,16,29.96,10.0,North,9.2,-,N/A,,Clear,360,2012-11-06 19:56:00
12:56 PM,89.1,34.0,14,29.94,10.0,North,11.5,-,N/A,,Clear,10,2012-11-06 20:56:00
2:56 PM,90.0,33.1,13,29.91,10.0,North,3.5,-,N/A,,Clear,10,2012-11-06 22:56:00
3:56 PM,89.1,33.1,14,29.90,10.0,North,4.6,-,N/A,,Clear,350,2012-11-06 23:56:00
4:56 PM,82.0,34.0,18,29.90,10.0,NNW,6.9,-,N/A,,Clear,330,2012-11-07 00:56:00
5:56 PM,78.1,33.1,19,29.91,10.0,WNW,9.2,-,N/A,,Clear,300,2012-11-07 01:56:00
6:56 PM,77.0,33.1,20,29.92,10.0,NW,6.9,-,N/A,,Clear,320,2012-11-07 02:56:00
7:56 PM,72.0,33.1,24,29.92,10.0,WNW,5.8,-,N/A,,Clear,290,2012-11-07 03:56:00
8:56 PM,69.1,33.1,26,29.94,10.0,West,3.5,-,N/A,,Clear,270,2012-11-07 04:56:00
9:56 PM,68.0,32.0,26,29.94,10.0,WSW,5.8,-,N/A,,Clear,250,2012-11-07 05:56:00
10:56 PM,66.0,33.1,29,29.94,10.0,WSW,4.6,-,N/A,,Clear,240,2012-11-07 06:56:00
11:56 PM,64.9,33.1,31,29.94,10.0,West,6.9,-,N/A,,Clear,270,2012-11-07 07:56:00